Сходня

Россия / Московская область     55°56′59″N   37°17′55″E
темп.,
°C
ветер,
м/с
пор.,
м/с
влажн.,
%
обл.,
%
осадки,
мм/ч
давл.,
гПа
погр.,
м
22 апреля, чт
чт2200:00+4ююз3894100 0.0 1011236
03:00+4ю489490 0.1 1011297
06:00+2ю4109643 0.0 1012297
09:00+6ююз5984100 0.0 1013537
12:00+10ююз687399 0.0 10141072
15:00+12ююз686040 0.3 10131497
18:00+11ю587026 0.3 1013844
21:00+9ююв51185100 0.4 1014334
23 апреля, пт
пт2300:00+8ю4109250 0.2 1013313
03:00+6ю4119566 0.2 1013298
06:00+7ю5149214 0.0 1013442
09:00+11ю6137481 0.1 1013958
12:00+14ююз8156150 0.5 10121974
15:00+11юз61278100 2.3 10121552
18:00+7зюз3689100 2.6 1013509
21:00+6сз0193100 6.9 1012185
24 апреля, сб
сб2400:00+3сз3496100 6.8 1011188
03:00+3зсз3599100 14.5 1009430
06:00+2зсз2699100 6.8 1008385
09:00+3з3797100 8.8 1008487
12:00+6з3675100 1.0 1008984
15:00+8зюз675540 1.4 10071607
18:00+7з475818 0.4 1007798
21:00+2з36805 0.6 1008114
25 апреля, вс
вс2500:00+1зюз310855 0.0 1008237
03:000зюз49945 0.0 1008287
06:000зюз499531 0.0 1009392
09:00+4зюз587171 0.0 10081159
12:00+5з586399 0.1 10091494
15:00+6з685787 0.4 10091657
18:00+5зюз576585 0.2 10091273
21:00+1юз38805 0.2 1011183
26 апреля, пн
пн2600:000юз39895 0.0 1011255
03:00−1юз38955 0.0 1010208
06:00−1юз389347 0.0 1010283
09:00+3юз457489 0.0 1010925
12:00+4зюз5664100 0.3 10101289
15:00+5з465798 0.3 10101391
18:00+5зюз576461 0.1 10101121
21:00+1з4108779 0.2 1011489